Other Surface Observations
Issued by NWS

Home | Current Version | Previous Version | Text Only | Print | Product List | Glossary On
Versions: 1 2 3 4 5 6 7 8 9 10 11 12 13 14 15 16 17 18 19 20 21 22 23 24 25 26 27 28 29 30 31 32 33 34 35 36 37 38 39 40 41 42 43 44 45 46 47 48 49 50
136
SXUS52 KTAE 251018
OSOTAE
OSOTAE
North Florida/South Alabama/Southwest Georgia Weather Roundup
National Weather Service Tallahassee Florida
600 AM EDT WED APR 25 2018

Note: "fair" indicates few or no clouds below 12,000 feet with no
significant weather and/or obstructions to visibility.

!FLZ017-115-028-034-025-251100
...North Florida...

CITY           SKY/WX    TMP DP  RH WIND       PRES   REMARKS
TALLAHASSEE    FAIR      55  53  93 W5        29.93S
APALACHICOLA   FAIR      58  56  93 NW3       29.95S
PERRY          FAIR      56  55  95 W3        29.93S
CROSS CITY     FAIR      59 N/A N/A NW5       29.93R
JACKSONVILLE   FAIR      62  60  93 W6        29.89R
$$

!FLZ112-006-005-002-011-251100
...Florida Panhandle...

CITY           SKY/WX    TMP DP  RH WIND       PRES   REMARKS
MARIANNA       FAIR      56  54  93 W5        29.94S
BONIFAY        FAIR      56  55  97 CALM      29.96S
PANAMA CITY NW FAIR      56  53  90 W5        29.95S
TYNDALL AFB    FAIR      56  54  92 NW7       29.96S
TYND DRONE APT FAIR      60  56  85 NW5       29.96S
DE FUNIAK SPR  FAIR      55  53  94 NW5       29.97S
EGLIN AFB      CLEAR     54  52  91 NW8       29.97R
DESTIN         FAIR      64  54  69 VRB6      29.98R
HURLBURT       CLEAR     58  53  86 NW8       29.97R
CRESTVIEW      FAIR      51  49  92 CALM      29.99S
PENSACOLA      FAIR      58  54  86 NW5       29.99S
$$

!ALZ063-066-251100
...South Alabama...

CITY           SKY/WX    TMP DP  RH WIND       PRES   REMARKS
DOTHAN         FAIR      56  53  90 W8        29.97F
OZARK CAIRNS   FAIR      52  51  97 W5        29.95S
FT RUCKER HELI FAIR      54  54  97 CALM      29.95S
RUCKER HELI 3  FAIR      55  53  95 W3        29.95S
RUCKER HELI 2  FAIR      52  52 100 CALM      29.94S
FLORALA APT    FAIR      53  50  89 CALM      29.99S
ANDALUSIA      FAIR      55  52  89 W3        29.97R
TROY           FAIR      49  48  97 CALM      29.96R
EUFALA         FAIR      56  54  93 CALM      29.92R
MOBILE         FAIR      53  52  96 W3        30.02R
$$

!GAZ120>161-251100
...Southwest and South Central Georgia...

CITY           SKY/WX    TMP DP  RH WIND       PRES   REMARKS
THOMASVILLE    FAIR     N/A N/A N/A W5        29.93R
BAINBRIDGE       N/A     59  59 100 W5        29.93S
MOODY AFB      FAIR      58  55  89 W5        29.89F
VALDOSTA       FAIR      54  52  93 CALM      29.91S
MOULTRIE       FAIR      55  54  94 W3        29.93R
BLAKELY        FAIR      55  54  94 CALM      29.93F
ALBANY         FAIR      55  54  96 W5        29.93S
TIFTON         FAIR     N/A N/A N/A W5        29.90S
FITZGERALD     FAIR      58  57  97 W5        29.92S
CORDELE        FAIR      59  56  91 W3        29.91S
AMERICUS       FAIR      54  50  87 W5        29.92S
HOMERVILLE     FAIR      55  54  94 W5        29.90S
$$

!GMZ750-755-770-775-251100
...Coastal and Buoy Obs...

STATION/POSITION TIME  TEMP    WIND        PRES    VSBY  WAVE
                       AIR SEA DIR/SP/G                  HT/PER
                 (UTC) (F)     (DEG/KT/KT) (MB)    (MI)  (FT/S)
KEATON BEACH     1000   63     330/  5/  7 1013.8R
CEDAR KEY        1000   68     330/  6/  9 1013.4F
C TOWER          1000   64     330/ 16/ 17 1014.3F
APALACHICOLA BUO NOT AVBL
PANAMA CITY BUOY 0950   69 74  350/ 12/ 14 1014.5F         3/ 5
MOBILE BUOY      1000      72  350/ 10/ 12 1016.5
ORANGE BCH AL BU 1000   66     330/ 12/ 16 1015.8
$$




USA.gov is the U.S. government's official web portal to all federal, state and local government web resources and services.